Home > Weather > The Settlement > Past weeks

Flag for Christmas Island Weather for the Past 2 Weeks in The Settlement, Christmas Island

Now
75 °F

Sprinkles. Mostly cloudy.


Feels Like: 74 °F
Forecast: 75 / 80 °F
Wind: 5 mph from Southwest

Location: Christmas Island Aerodrome

Current Time: Feb 11, 2016 at 6:31:27 PM

Latest Report: Feb 11, 2016 at 6:04 PM


Visibility: N/A

Pressure: 29.86 "Hg

Humidity: 94%

Dew point: 73 °F

Location of The SettlementLocation

Historic Weather in The Settlement — Graph

°F

The Settlement Temperature Yesterday

Maximum temperature yesterday: 84 °F (at 9:00 AM)
Minimum temperature yesterday: 75 °F (at 5:30 AM)
Average temperature yesterday: 81 °F

High & Low Weather Summary for the Past Weeks

 TemperatureHumidityPressure
High86 °F (Jan 28, 12:30 PM)100% (Jan 30, 4:00 PM)29.95 "Hg (Jan 30, 4:00 PM)
Low73 °F (Jan 31, 9:00 PM)62% (Jan 28, 12:00 PM)29.74 "Hg (Jan 31, 2:00 PM)
Average78 °F87%29.85 "Hg
* Reported Jan 27 5:00 PM — Feb 11 5:00 PM, The Settlement, Weather by CustomWeather, © 2016

Note: Actual official high and low records may vary slightly from our data, if they occured in-between our weather recording intervals... More about our weather records

Advertising

The Settlement Weather History for the Previous 24 Hours

 ConditionsComfort  
Time TempWeatherWind HumidityBarometerVisibility
5:00 PM
Thu, Feb 11
77 °FSprinkles. More clouds than sun.5 mph94%29.83 "HgN/A
4:52 PM77 °FSprinkles. More clouds than sun.5 mph94%29.83 "HgN/A
4:30 PM77 °FSprinkles. Mostly cloudy.6 mph94%29.80 "HgN/A
4:00 PM77 °FLots of rain. Cloudy.5 mph94%29.80 "Hg1 mi
3:00 PM82 °FMore clouds than sun.8 mph74%29.80 "HgN/A
2:30 PM82 °FScattered clouds.7 mph74%29.80 "HgN/A
2:05 PM82 °FPartly sunny.6 mph74%29.80 "HgN/A
1:30 PM82 °FScattered clouds.9 mph74%29.83 "HgN/A
1:00 PM82 °FPartly sunny.9 mph79%29.83 "HgN/A
12:30 PM81 °FPartly sunny.9 mph84%29.83 "HgN/A
12:00 PM81 °FBroken clouds.8 mph84%29.83 "HgN/A
11:30 AM84 °FScattered clouds.8 mph74%29.86 "HgN/A
11:00 AM81 °FPartly sunny.7 mph84%29.86 "HgN/A
10:30 AM81 °FSprinkles. Broken clouds.6 mph84%29.86 "HgN/A
10:00 AM81 °FSprinkles. Broken clouds.3 mph89%29.86 "HgN/A
9:00 AM81 °FScattered clouds.3 mph84%29.86 "HgN/A
8:30 AM79 °FScattered clouds.6 mph89%29.89 "HgN/A
8:00 AM79 °FSunny.6 mph89%29.86 "HgN/A
7:30 AM77 °FScattered clouds.6 mph94%29.86 "HgN/A
7:00 AM77 °FScattered clouds.7 mph94%29.86 "HgN/A
6:30 AM77 °FSunny.3 mph94%29.83 "HgN/A
6:00 AM79 °FMostly cloudy.2 mph94%29.83 "HgN/A
5:30 AM77 °FLots of rain. Overcast.7 mph100%29.83 "Hg3 mi
5:00 AM79 °FLots of rain. Partly cloudy.3 mph89%29.83 "Hg4 mi
4:00 AM77 °FClear.3 mph89%29.83 "HgN/A
3:30 AM77 °FPassing clouds.3 mph94%29.83 "HgN/A
3:00 AM75 °FClear.3 mph94%29.83 "HgN/A
2:30 AM77 °FClear.3 mph89%29.83 "HgN/A
2:00 AM77 °FClear.3 mph89%29.83 "HgN/A
1:30 AM77 °FClear.5 mph89%29.83 "HgN/A
1:00 AM77 °FPassing clouds.3 mph89%29.83 "HgN/A
12:30 AM77 °FPassing clouds.2 mph94%29.86 "HgN/A
12:00 AM79 °FPassing clouds.5 mph84%29.86 "HgN/A
11:30 PM
Wed, Feb 10
81 °FPartly cloudy.5 mph84%29.86 "HgN/A
11:00 PM81 °FPassing clouds.6 mph79%29.86 "HgN/A
10:30 PM81 °FClear.6 mph79%29.86 "HgN/A
10:00 PM81 °FPassing clouds.7 mph79%29.86 "HgN/A
9:30 PM81 °FPassing clouds.6 mph84%29.89 "HgN/A
9:00 PM81 °FPassing clouds.6 mph84%29.86 "HgN/A
8:30 PM81 °FPassing clouds.6 mph84%29.86 "HgN/A
8:00 PM81 °FPassing clouds.5 mph79%29.86 "HgN/A
7:30 PM81 °FPassing clouds.3 mph79%29.86 "HgN/A
7:00 PM81 °FClear.5 mph79%29.86 "HgN/A
6:30 PM81 °FPassing clouds.5 mph79%29.83 "HgN/A
6:00 PM82 °FSunny.5 mph74%29.83 "HgN/A
Weather by CustomWeather, © 2016

See weather overviewHow to use our weather pages